Temperature
3 3 2 2 3 2 2 2 3 4 4 6 6 5 5 6 6 6 6 7 6 6 6 6 6 6 6 5 5 4 4 4 4 4 3 3 3 3 3 3 2 2 2 2
2 2 3 3 3 2 3 3 3 3 4 5 5 5 5 5 5 5 6 6 6 6 6 6 6 5 5 5 4 4 4 4 3 3 3 3 3 3 2 2 2 2 2 2
2 2 2 3 3 3 2 2 3 4 5 4 4 3 4 5 5 5 6 6 6 6 6 6 5 5 5 4 4 4 4 3 3 3 3 2 2 2 2 2 1 1 1 1
1 2 3 4 4 3 3 3 3 3 4 3 4 4 5 5 5 5 5 5 5 6 5 5 5 5 4 4 4 3 3 3 3 2 2 2 2 1 1 1 1 1 1 1
1 1 2 3 3 2 2 3 3 3 3 3 3 3 4 5 5 5 5 5 5 5 5 5 4 4 4 4 3 3 3 2 2 2 2 2 1 1 1 1 1 1 1 1
0 2 3 4 3 2 3 3 3 2 2 2 2 2 3 5 5 5 5 5 5 4 4 4 4 3 3 3 3 2 2 2 2 1 1 1 1 1 1 1 0 0 0 0
1 1 2 2 2 3 3 3 3 3 2 2 1 2 3 4 4 4 4 4 4 4 4 3 3 3 3 3 2 2 2 1 1 1 1 1 1 1 0 0 0 0 0 0
0 1 2 2 1 2 2 3 3 3 3 2 2 3 3 3 3 3 3 3 3 3 3 3 3 2 2 2 2 1 1 1 1 1 1 0 0 0 0 -0 -0 -0 -0 -0
0 2 1 2 2 3 3 3 3 3 2 2 2 2 2 2 2 2 2 2 2 2 2 2 2 2 1 1 1 1 1 1 1 0 0 0 -0 -0 -0 -1 -1 -1 -1 -1
-1 -0 0 1 2 2 3 3 2 2 2 2 2 1 1 1 1 2 2 2 2 2 2 1 1 1 1 0 0 0 0 0 -0 -0 -0 -0 -1 -1 -1 -1 -2 -2 -2 -2
-1 -1 -0 1 2 2 2 2 2 2 1 1 1 1 1 1 1 1 1 1 1 1 1 1 1 1 0 -0 -0 -0 -1 -1 -1 -1 -1 -1 -1 -1 -2 -2 -2 -3 -3 -3
-0 0 -0 1 2 2 2 1 1 1 1 1 1 1 1 1 1 0 0 0 0 0 0 0 0 0 -0 -0 -1 -1 -1 -1 -1 -1 -1 -1 -2 -1 -2 -2 -2 -2 -3 -3
1 1 1 1 1 1 1 1 1 1 0 0 0 0 0 0 -0 -0 -0 -0 -0 -0 -0 -0 -1 -1 -1 -1 -1 -1 -2 -2 -2 -2 -2 -2 -2 -2 -2 -2 -2 -2 -2 -3
0 0 -0 0 0 0 0 -0 -0 -0 -0 -0 -0 -0 -0 -1 -1 -1 -1 -1 -1 -1 -1 -1 -1 -1 -1 -1 -2 -2 -2 -2 -2 -2 -2 -2 -3 -3 -3 -3 -3 -2 -2 -2
-0 -0 -0 -1 -1 -1 -1 -1 -1 -1 -1 -1 -1 -1 -1 -1 -1 -1 -1 -1 -1 -1 -1 -1 -1 -1 -2 -2 -2 -2 -2 -2 -2 -2 -3 -3 -3 -3 -3 -3 -4 -3 -3 -2
-1 -1 -1 -1 -1 -1 -1 -1 -2 -2 -2 -2 -2 -2 -2 -2 -2 -2 -2 -2 -2 -2 -2 -2 -2 -2 -2 -2 -2 -2 -2 -3 -3 -3 -3 -3 -3 -4 -4 -4 -4 -4 -4 -4
-2 -2 -2 -2 -2 -2 -2 -2 -2 -2 -2 -2 -3 -3 -3 -3 -3 -3 -2 -3 -3 -3 -3 -3 -3 -3 -3 -3 -3 -3 -3 -3 -3 -3 -3 -4 -4 -4 -4 -4 -4 -4 -4 -4
-3 -3 -3 -3 -3 -3 -3 -3 -3 -3 -3 -3 -3 -3 -3 -3 -3 -3 -3 -3 -3 -3 -3 -3 -3 -3 -3 -3 -3 -4 -4 -4 -4 -4 -4 -4 -4 -4 -4 -4 -4 -4 -4 -4
-3 -3 -3 -3 -3 -3 -4 -4 -4 -4 -4 -4 -4 -4 -4 -4 -4 -4 -4 -4 -4 -3 -3 -4 -4 -4 -4 -4 -4 -4 -4 -4 -4 -4 -4 -4 -4 -4 -4 -4 -4 -4 -4 -4
-4 -4 -4 -4 -4 -4 -4 -4 -4 -4 -4 -4 -4 -4 -4 -4 -4 -4 -4 -4 -4 -4 -4 -4 -4 -4 -4 -4 -4 -4 -4 -4 -4 -4 -4 -4 -4 -4 -4 -4 -4 -4 -4 -4
-5 -5 -4 -5 -5 -5 -5 -5 -5 -5 -5 -5 -5 -5 -5 -5 -5 -5 -5 -5 -4 -5 -5 -5 -5 -5 -5 -5 -5 -5 -5 -5 -5 -5 -5 -5 -5 -5 -4 -4 -4 -4 -4 -4
-5 -5 -5 -5 -5 -5 -5 -5 -5 -5 -5 -6 -6 -6 -5 -5 -5 -5 -5 -5 -5 -5 -5 -5 -5 -5 -5 -5 -5 -5 -5 -5 -5 -5 -5 -5 -5 -5 -5 -5 -5 -5 -5 -5
-6 -6 -6 -6 -6 -6 -6 -6 -6 -6 -6 -6 -6 -6 -6 -6 -6 -6 -6 -6 -6 -6 -6 -6 -6 -6 -6 -6 -5 -5 -5 -5 -5 -5 -5 -5 -5 -5 -5 -5 -5 -5 -5 -5
-6 -6 -6 -6 -6 -6 -6 -6 -6 -7 -7 -7 -7 -7 -7 -6 -6 -6 -6 -6 -6 -6 -6 -6 -6 -6 -6 -6 -6 -6 -6 -6 -6 -6 -6 -6 -6 -6 -6 -6 -5 -5 -5 -5
-7 -7 -7 -7 -7 -7 -7 -7 -7 -7 -7 -7 -7 -7 -7 -7 -7 -7 -7 -6 -6 -7 -6 -6 -6 -6 -6 -6 -6 -6 -6 -6 -6 -6 -6 -6 -6 -6 -6 -6 -6 -5 -5 -5
-7 -7 -7 -7 -7 -7 -7 -8 -8 -8 -8 -8 -7 -7 -7 -7 -7 -7 -7 -7 -7 -7 -7 -7 -7 -6 -6 -6 -6 -6 -6 -6 -6 -6 -6 -6 -6 -6 -6 -6 -6 -6 -6 -5
-8 -8 -8 -8 -8 -8 -8 -8 -8 -8 -8 -8 -8 -8 -8 -8 -8 -8 -8 -7 -7 -7 -7 -7 -7 -7 -7 -7 -7 -7 -7 -7 -6 -6 -6 -6 -6 -6 -6 -6 -6 -6 -6 -6
Wind_Speed
3 2 4 6 8 11 11 10 10 10 11 14 10 7 6 5 5 5 5 6 5 5 5 5 4 4 3 3 3 3 3 4 5 6 5 6 6 6 6 7 7 7 7 8
2 3 3 5 9 13 13 11 11 11 14 11 8 5 5 6 5 6 7 7 6 6 5 5 4 4 4 4 4 3 3 5 5 5 5 6 6 6 6 6 6 7 7 8
3 2 1 8 11 14 9 9 10 14 13 4 4 6 7 7 6 7 7 7 6 6 6 5 5 4 4 4 3 3 4 5 5 5 5 6 6 6 6 6 6 7 8 8
2 2 7 8 4 8 10 9 10 9 7 5 7 7 6 6 6 7 6 6 6 5 5 4 4 3 3 2 2 3 4 4 5 5 6 6 6 6 6 6 6 7 8 8
4 4 7 7 3 5 7 7 7 9 9 6 3 3 5 5 4 6 6 5 5 4 3 3 3 2 2 3 3 3 4 5 5 5 6 6 6 7 6 6 7 7 7 7
4 4 7 5 2 2 4 5 4 6 7 4 1 2 6 4 4 4 4 3 3 3 2 2 3 2 2 3 3 5 5 5 5 5 5 6 7 7 6 6 7 7 7 7
5 5 7 5 2 3 4 6 3 3 4 4 5 6 5 4 4 3 3 4 3 2 2 2 2 2 2 3 4 5 5 5 5 5 5 6 6 6 6 6 7 7 8 7
5 5 8 2 4 5 5 3 3 3 2 3 3 3 3 3 3 3 4 4 4 3 3 3 2 2 3 4 5 5 4 5 5 5 5 5 5 6 6 6 7 7 7 8
7 7 3 3 4 3 2 2 3 3 3 1 1 3 3 3 3 4 3 4 4 3 3 4 3 2 3 5 5 5 5 5 5 6 5 5 5 6 6 5 6 7 7 7
4 6 5 4 3 3 2 3 3 2 2 1 2 2 3 3 4 4 4 4 4 4 3 4 4 3 3 4 4 4 5 5 5 5 5 5 5 5 5 5 6 7 7 7
5 5 4 4 4 4 3 1 1 2 1 1 1 2 3 3 4 4 4 4 4 3 3 5 5 5 4 4 4 4 5 5 5 4 4 5 5 4 5 5 6 7 6 6
7 6 5 5 4 3 2 3 2 1 2 2 1 2 3 3 3 3 4 4 4 4 4 4 4 5 5 4 3 3 4 5 4 4 4 4 5 6 7 7 11 10 9 8
6 5 4 4 3 2 2 2 2 1 1 2 2 2 2 3 3 4 4 4 4 5 4 4 4 5 5 4 3 3 4 4 4 4 4 5 5 5 7 8 9 9 9 10
4 2 3 4 3 2 1 1 1 1 1 1 2 2 2 3 3 4 4 5 4 4 4 4 4 5 5 4 4 4 4 5 4 4 4 4 5 5 5 6 8 7 8 10
4 3 4 3 2 1 1 2 2 2 2 3 2 2 3 3 3 4 5 4 4 4 5 5 5 6 5 5 4 4 4 3 3 4 4 4 4 4 4 5 6 6 7 8
3 1 1 0 1 1 2 2 1 1 2 3 3 3 3 3 3 3 4 4 4 5 5 5 6 6 6 5 5 4 4 6 5 4 4 4 4 4 4 5 5 5 6 6
1 2 1 1 2 1 1 1 0 1 2 3 3 3 3 3 4 4 5 5 4 4 5 5 6 7 6 5 4 4 4 4 6 5 4 4 4 4 4 4 5 5 5 7
2 2 1 1 2 1 1 1 1 1 2 3 2 2 3 3 3 4 5 5 5 5 6 6 6 6 6 5 4 4 3 3 3 3 3 3 4 4 4 4 5 6 6 7
2 1 1 1 1 1 0 1 1 2 2 2 2 2 2 3 3 4 4 5 5 6 6 7 10 8 6 7 7 4 3 3 4 4 4 5 5 4 4 4 5 5 5 5
3 3 3 3 3 2 1 1 1 1 2 2 2 3 3 4 4 4 4 4 4 4 6 7 7 6 6 6 7 4 4 4 4 4 4 4 4 5 4 5 5 5 5 5
4 4 4 4 4 3 2 1 1 2 2 2 2 2 3 4 4 4 4 5 5 6 6 8 6 5 5 6 7 4 4 4 4 4 4 4 4 5 5 5 5 5 5 5
4 4 4 3 4 4 3 3 2 2 3 3 3 3 3 4 4 4 3 3 6 9 7 5 5 7 8 8 4 4 4 4 4 4 4 4 4 5 5 5 5 5 5 4
3 3 3 3 3 3 3 3 3 3 3 3 3 3 3 3 4 3 4 5 5 9 7 5 8 11 11 6 4 4 4 4 4 4 4 4 4 5 5 5 5 5 4 4
3 4 3 3 3 4 4 4 4 3 3 3 3 3 3 3 4 3 3 8 10 10 6 8 11 11 10 5 4 4 4 4 4 5 5 5 5 5 5 5 5 4 4 4
3 3 3 3 3 3 2 3 4 4 4 3 4 4 3 3 3 5 5 6 9 9 6 8 11 11 7 4 4 4 4 4 5 5 5 5 5 5 5 5 5 4 4 4
3 3 3 2 2 2 2 2 2 3 3 4 4 4 4 4 4 4 5 5 6 8 6 5 6 7 5 5 5 5 5 5 6 5 5 5 5 5 4 4 5 4 4 3
3 2 2 3 3 3 2 2 2 3 3 3 4 5 5 5 5 5 5 5 5 5 5 5 5 5 5 5 5 5 5 5 5 5 5 5 5 4 4 5 4 4 3 3
Wind_Direction
251 229 175 202 204 192 201 204 210 233 239 260 269 270 275 276 277 281 280 277 270 269 275 278 280 279 271 276 281 285 289 287 282 285 285 288 292 293 290 288 288 285 284 284
259 247 225 241 225 211 220 223 234 255 264 258 266 272 276 276 267 271 271 267 271 275 277 273 269 275 281 281 283 283 282 281 284 288 293 296 297 297 296 293 292 293 291 289
223 233 321 258 223 204 205 210 204 231 246 264 272 268 262 260 255 258 263 269 270 270 269 267 264 261 264 272 283 285 283 286 291 294 295 295 297 299 296 297 296 294 291 290
167 130 231 243 205 194 211 230 219 237 259 259 256 268 264 248 243 260 269 273 272 272 276 283 281 279 278 288 290 290 292 295 297 297 295 296 295 293 296 295 293 295 295 292
172 211 265 284 239 182 198 251 225 234 260 275 296 326 292 259 245 257 266 275 273 272 276 290 294 296 304 304 302 297 293 292 293 294 297 300 297 293 293 297 298 296 296 296
175 198 233 252 239 179 130 269 243 221 247 256 115 289 277 294 299 295 303 308 307 317 332 326 316 338 333 304 304 297 292 291 294 293 294 296 295 298 300 300 299 301 301 300
196 220 255 264 230 140 175 248 296 232 243 219 208 229 266 308 324 330 335 332 338 348 342 319 323 355 334 312 299 295 303 304 300 298 297 297 301 304 306 307 308 308 306 304
177 210 248 213 139 179 226 289 304 288 273 235 252 285 306 317 327 341 348 344 349 354 342 343 353 1 329 311 309 318 320 316 311 307 308 311 311 311 311 310 311 312 312 311
195 217 255 190 202 240 257 285 293 292 286 243 270 298 315 318 323 327 338 339 345 350 344 345 352 355 313 312 326 330 328 319 319 322 319 316 313 312 315 315 313 314 314 314
240 258 262 267 274 273 269 265 287 288 268 249 262 286 307 313 322 327 333 336 337 346 342 331 334 335 313 317 329 331 325 320 321 323 324 326 324 317 315 314 311 311 312 313
241 266 294 278 250 256 275 281 293 311 293 258 247 296 297 303 311 319 326 330 336 333 320 317 326 329 329 330 337 333 325 320 322 324 322 324 320 315 312 304 299 304 303 306
235 232 221 250 251 240 250 273 271 276 309 310 258 285 302 307 311 319 325 334 336 329 322 318 324 324 327 333 337 331 326 325 323 321 319 322 324 324 320 315 317 317 314 310
246 264 251 262 286 276 260 278 289 271 253 298 317 303 303 308 320 329 329 331 325 319 319 320 323 325 328 332 333 324 314 315 315 315 317 320 320 320 321 326 327 329 329 327
256 264 271 281 283 295 283 310 42 33 358 322 317 332 332 320 322 328 321 318 320 327 327 324 327 326 326 327 329 323 317 316 318 313 314 317 317 316 316 319 325 329 333 338
278 254 244 267 292 321 57 79 68 26 1 355 354 347 342 330 322 318 322 332 340 345 340 337 334 328 331 331 329 323 320 319 316 314 314 313 315 318 321 322 322 324 329 334
305 303 238 261 318 357 55 66 66 348 340 340 346 346 338 328 325 332 342 350 351 342 336 337 332 326 329 330 330 328 324 324 324 319 317 319 322 325 326 325 324 326 328 328
296 307 338 339 319 327 346 5 154 287 326 333 333 340 352 359 359 356 351 348 343 333 333 332 327 327 330 332 329 323 321 324 326 325 323 322 321 320 319 321 322 323 321 325
265 245 228 213 233 265 358 21 29 355 328 317 333 356 1 359 349 339 339 342 348 348 344 336 330 330 334 334 329 321 321 319 322 320 320 321 317 315 318 320 320 318 317 323
8 18 43 57 78 125 80 1 346 341 338 352 5 3 353 348 339 335 339 348 350 341 335 334 334 341 336 332 331 322 321 318 320 320 318 318 321 321 320 318 316 315 317 320
33 38 53 54 52 63 63 17 23 19 8 21 31 22 7 353 346 342 340 336 325 308 312 322 327 329 328 325 327 321 319 317 314 315 317 316 316 317 317 316 315 315 320 324
36 45 53 53 43 39 43 56 74 35 10 21 29 6 345 336 338 338 337 331 325 326 325 328 334 328 324 322 324 322 320 319 319 318 315 314 314 314 316 318 319 319 321 322
31 44 47 51 54 41 27 35 51 44 27 19 13 3 355 346 341 335 321 301 311 326 332 326 323 322 326 325 326 327 326 324 321 317 314 313 312 314 316 318 319 318 319 321
32 41 44 46 49 39 28 31 36 39 28 8 354 345 336 324 323 322 320 323 323 326 332 325 327 330 332 335 336 333 329 325 321 317 313 311 310 309 310 312 313 312 316 321
35 37 37 37 46 48 32 16 19 20 13 357 348 338 331 330 329 321 303 317 328 329 329 329 336 339 341 347 342 336 329 324 321 317 314 313 311 309 309 309 310 312 317 319
36 37 39 39 37 28 14 9 14 14 11 3 353 346 340 329 310 310 314 317 325 332 331 334 341 344 346 339 335 329 325 321 318 316 314 315 313 313 312 312 312 312 314 315
29 29 23 17 6 353 349 359 0 351 353 352 346 342 340 335 325 319 319 322 325 333 336 331 332 337 339 335 332 327 324 322 321 322 318 315 313 313 312 314 314 312 311 309
27 27 26 19 11 4 357 356 353 344 341 336 329 330 334 334 332 332 330 330 331 332 331 330 333 334 335 334 332 329 327 323 320 319 318 316 315 313 313 311 312 313 313 313
Height
1439 1439 1442 1442 1443 1447 1448 1447 1448 1439 1436 1423 1420 1420 1419 1419 1419 1418 1418 1418 1417 1417 1416 1416 1415 1414 1413 1411 1410 1409 1407 1406 1404 1402 1400 1398 1396 1393 1390 1388 1385 1383 1381 1379
1440 1438 1438 1438 1437 1439 1440 1439 1438 1434 1429 1419 1418 1418 1418 1417 1417 1416 1415 1414 1414 1413 1413 1412 1411 1410 1409 1408 1407 1405 1403 1402 1400 1398 1395 1393 1391 1388 1386 1383 1381 1378 1376 1373
1440 1439 1437 1435 1427 1428 1430 1428 1428 1426 1418 1417 1417 1416 1415 1414 1413 1412 1411 1411 1410 1410 1409 1408 1408 1407 1405 1404 1403 1401 1399 1398 1396 1394 1391 1389 1387 1384 1381 1379 1376 1373 1371 1368
1441 1441 1436 1419 1415 1416 1418 1418 1418 1416 1413 1414 1413 1412 1411 1411 1410 1409 1408 1407 1407 1406 1406 1405 1404 1403 1402 1401 1399 1398 1396 1394 1392 1390 1387 1385 1382 1380 1377 1374 1371 1368 1366 1363
1438 1437 1428 1417 1414 1415 1417 1415 1412 1413 1411 1411 1411 1410 1408 1407 1407 1406 1406 1405 1404 1403 1403 1402 1401 1400 1399 1397 1396 1394 1392 1390 1389 1386 1384 1381 1378 1376 1373 1370 1367 1364 1361 1358
1434 1431 1425 1412 1411 1410 1414 1415 1408 1408 1408 1409 1410 1413 1407 1404 1404 1403 1402 1402 1401 1400 1400 1399 1398 1397 1395 1394 1392 1391 1389 1387 1385 1383 1380 1378 1375 1372 1369 1366 1363 1360 1357 1354
1429 1428 1420 1412 1410 1410 1417 1411 1406 1405 1405 1406 1407 1406 1404 1402 1401 1401 1400 1399 1399 1398 1397 1396 1395 1394 1392 1390 1389 1388 1386 1384 1382 1380 1377 1375 1372 1369 1366 1362 1359 1356 1353 1350
1427 1425 1418 1409 1410 1412 1409 1405 1404 1403 1403 1403 1403 1402 1401 1401 1399 1399 1398 1397 1396 1395 1395 1394 1393 1392 1389 1388 1387 1385 1382 1380 1378 1376 1374 1371 1368 1365 1362 1359 1356 1352 1349 1345
1417 1413 1407 1405 1405 1405 1405 1404 1403 1402 1401 1401 1401 1400 1400 1399 1398 1397 1396 1396 1395 1394 1392 1392 1391 1390 1387 1385 1384 1381 1379 1377 1375 1373 1370 1368 1365 1362 1359 1356 1353 1349 1346 1342
1413 1407 1404 1404 1403 1403 1403 1402 1401 1401 1400 1400 1399 1399 1398 1397 1396 1396 1395 1394 1393 1392 1390 1389 1389 1387 1385 1383 1381 1379 1376 1374 1372 1369 1367 1365 1362 1359 1356 1353 1350 1347 1343 1340
1408 1404 1402 1401 1401 1401 1400 1400 1399 1399 1399 1399 1398 1397 1397 1396 1395 1394 1393 1393 1391 1390 1388 1387 1386 1384 1383 1381 1378 1376 1374 1372 1369 1367 1364 1362 1359 1357 1354 1351 1349 1345 1342 1339
1402 1399 1400 1398 1398 1398 1398 1397 1397 1397 1397 1397 1397 1396 1395 1394 1393 1393 1392 1390 1389 1388 1386 1385 1383 1382 1380 1378 1376 1373 1371 1369 1366 1364 1361 1359 1356 1353 1351 1349 1346 1343 1341 1338
1396 1395 1396 1395 1395 1395 1395 1395 1395 1395 1395 1395 1395 1395 1394 1392 1391 1391 1390 1388 1387 1386 1384 1382 1380 1379 1377 1375 1373 1371 1369 1366 1364 1362 1359 1356 1353 1350 1347 1345 1343 1340 1338 1335
1393 1393 1393 1393 1393 1392 1392 1393 1393 1393 1393 1393 1393 1393 1392 1391 1390 1389 1387 1386 1385 1383 1381 1380 1378 1376 1375 1372 1370 1368 1366 1364 1362 1359 1357 1354 1352 1349 1346 1342 1339 1336 1335 1333
1391 1391 1391 1390 1390 1390 1390 1390 1391 1391 1391 1391 1391 1390 1390 1388 1387 1387 1385 1384 1382 1381 1379 1377 1375 1374 1372 1370 1368 1366 1364 1361 1359 1357 1355 1353 1350 1347 1344 1341 1338 1335 1332 1331
1388 1388 1388 1388 1388 1388 1388 1388 1389 1389 1389 1389 1389 1388 1388 1387 1386 1385 1383 1382 1380 1378 1377 1375 1373 1372 1370 1368 1366 1363 1361 1360 1357 1355 1353 1351 1348 1346 1343 1340 1338 1335 1332 1330
1387 1386 1386 1386 1386 1386 1386 1387 1387 1387 1388 1387 1387 1386 1386 1385 1383 1382 1381 1380 1379 1377 1375 1373 1371 1370 1368 1366 1364 1362 1359 1358 1356 1353 1351 1349 1347 1344 1342 1340 1337 1335 1332 1331
1385 1385 1385 1385 1385 1385 1385 1386 1386 1386 1386 1386 1385 1385 1384 1383 1382 1381 1380 1378 1377 1375 1374 1372 1370 1368 1366 1364 1362 1360 1358 1356 1354 1352 1349 1347 1345 1343 1341 1339 1336 1334 1332 1330
1383 1383 1383 1384 1384 1384 1384 1384 1385 1385 1385 1384 1384 1383 1383 1382 1381 1380 1378 1377 1375 1373 1372 1370 1369 1366 1364 1363 1361 1358 1356 1354 1352 1350 1348 1346 1344 1342 1340 1338 1336 1334 1331 1329
1382 1382 1382 1382 1382 1383 1383 1383 1383 1383 1383 1383 1382 1382 1381 1381 1380 1378 1377 1375 1374 1372 1370 1368 1366 1364 1362 1361 1359 1356 1354 1352 1350 1348 1346 1344 1342 1340 1338 1337 1335 1333 1331 1329
1382 1382 1382 1381 1381 1382 1381 1381 1381 1381 1381 1381 1381 1380 1380 1379 1379 1377 1375 1373 1372 1371 1369 1367 1365 1362 1360 1358 1356 1354 1352 1350 1348 1346 1344 1342 1340 1339 1337 1335 1333 1332 1330 1328
1383 1382 1382 1381 1381 1381 1381 1381 1381 1380 1380 1380 1380 1379 1379 1378 1377 1376 1375 1373 1371 1369 1367 1365 1363 1360 1358 1357 1355 1352 1350 1348 1346 1344 1343 1341 1339 1337 1335 1334 1332 1330 1329 1328
1383 1383 1382 1382 1382 1381 1381 1381 1381 1380 1380 1379 1379 1378 1377 1377 1375 1374 1372 1371 1369 1367 1365 1363 1361 1359 1357 1355 1353 1351 1348 1346 1344 1343 1341 1339 1337 1335 1333 1332 1331 1329 1328 1327
1384 1384 1383 1383 1383 1382 1381 1381 1381 1380 1380 1379 1378 1377 1376 1375 1374 1373 1371 1369 1367 1365 1363 1361 1359 1357 1355 1353 1351 1348 1346 1344 1342 1341 1339 1337 1335 1334 1332 1331 1329 1328 1327 1326
1385 1385 1384 1384 1383 1382 1382 1381 1380 1380 1379 1378 1377 1377 1376 1374 1372 1371 1369 1367 1365 1363 1361 1359 1357 1355 1353 1350 1349 1347 1344 1343 1341 1339 1337 1335 1333 1332 1330 1329 1328 1327 1326 1325
1386 1385 1385 1385 1384 1383 1383 1382 1380 1380 1379 1377 1376 1375 1374 1373 1371 1369 1367 1365 1363 1361 1359 1357 1355 1353 1351 1349 1347 1345 1343 1341 1339 1337 1335 1333 1332 1330 1329 1327 1326 1325 1325 1324
1386 1386 1385 1385 1385 1384 1383 1382 1381 1380 1378 1377 1375 1374 1373 1371 1369 1367 1365 1363 1361 1359 1357 1355 1353 1351 1349 1347 1345 1343 1341 1339 1337 1335 1333 1331 1330 1328 1327 1326 1325 1324 1323 1323